Flag for USA

Past Weather in Banning, California, USA — Yesterday and Last 2 Weeks

Now
101 °F

Sunny.


Feels Like: 99 °F
Forecast: 99 / 67 °F
Wind: 12 mph from Northwest

Location: Riverside / March Air Force Base

Current Time: Jul 11, 2020 at 5:20:54 pm

Latest Report: Jul 11, 2020 at 4:58 pm


Visibility: 10 mi

Pressure: 29.90 "Hg (27.65 "Hg at 713m altitude)

Humidity: 21%

Dew Point: 54 °F

Location of BanningLocation

Past Weather in Banning — Graph

°F

Banning Temperature Yesterday

Maximum temperature yesterday: 101 °F (at 3:58 pm)
Minimum temperature yesterday: 60 °F (at 5:58 am)
Average temperature yesterday: 80 °F

High & Low Weather Summary for the Past Weeks

 TemperatureHumidityPressure
High105 °F (Jul 11, 3:58 pm)94% (Jun 29, 5:32 am)30.00 "Hg (Jun 29, 5:32 am)
Low50 °F (Jul 3, 5:58 am)8% (Jul 11, 12:58 pm)29.73 "Hg (Jun 28, 5:58 pm)
Average73 °F53%29.88 "Hg
* Reported Jun 26 3:58 pm — Jul 11 3:58 pm, Banning. Weather by CustomWeather, © 2020

Note: Actual official high and low records may vary slightly from our data, if they occured in-between our weather recording intervals... More about our weather records

Banning Weather History for the Previous 24 Hours

Scroll right to see more
 ConditionsComfort  
Time TempWeatherWind HumidityBarometerVisibility
3:58 pm
Sat, Jul 11
105 °FSunny.12 mph15%29.90 "Hg10 mi
2:58 pm104 °FSunny.10 mph14%29.92 "Hg10 mi
1:58 pm103 °FSunny.10 mph11%29.93 "Hg10 mi
12:58 pm102 °FSunny.7 mph8%29.97 "Hg10 mi
11:58 am99 °FSunny.6 mph10%29.98 "Hg10 mi
10:58 am97 °FSunny.6 mph15%29.98 "Hg10 mi
9:58 am91 °FSunny.No wind24%29.99 "Hg10 mi
8:58 am86 °FSunny.3 mph28%29.99 "Hg10 mi
7:58 am78 °FSunny.No wind41%30.00 "Hg10 mi
6:58 am74 °FSunny.No wind43%29.99 "Hg10 mi
5:58 am67 °FSunny.No wind61%29.98 "Hg10 mi
4:58 am70 °FClear.5 mph59%29.95 "Hg10 mi
3:58 am70 °FPassing clouds.3 mph57%29.95 "Hg10 mi
2:58 am68 °FClear.No wind53%29.96 "Hg10 mi
1:58 am72 °FClear.No wind52%29.96 "Hg10 mi
12:58 am72 °FClear.No wind51%29.95 "Hg10 mi
11:58 pm
Fri, Jul 10
76 °FClear.No wind44%29.96 "Hg10 mi
10:58 pm77 °FPassing clouds.3 mph38%29.95 "Hg10 mi
9:58 pm80 °FClear.3 mph36%29.95 "Hg10 mi
8:58 pm82 °FClear.3 mph35%29.93 "Hg10 mi
7:58 pm85 °FSunny.8 mph32%29.93 "Hg10 mi
6:58 pm91 °FSunny.8 mph26%29.91 "Hg10 mi
Weather by CustomWeather, © 2020

See weather overview